Elwood, KS

1:59 PM CST on February 25, 2017 (GMT -0600)
Rosecrans Memorial

Weather History for KSTJ - September, 2011

Change the Weather History Date:

Wednesday, September 21, 2011

  Actual Average Record
Temperature  
Mean Temperature 60 °F 64 °F  
Max Temperature 73 °F 77 °F 98 °F (1956)
Min Temperature 47 °F 52 °F 31 °F (1999)
Degree Days  
Heating Degree Days 5 3  
Month to date heating degree days 5 32  
Since 1 July heating degree days 5 37  
Cooling Degree Days 0 3  
Month to date cooling degree days 0 100  
Year to date cooling degree days 458 1177  
Growing Degree Days 11 (Base 50)    
Moisture  
Dew Point 48 °F    
Average Humidity 66    
Maximum Humidity 96    
Minimum Humidity 35    
Precipitation  
Precipitation 0.00 in 0.11 in 2.22 in (1965)
Month to date precipitation 0.00 2.61  
Year to date precipitation 13.83 28.91  
Snow  
Snow 0.00 in - - ()
Month to date snowfall 0.0  
Snow Depth 0.00 in    
Sea Level Pressure  
Sea Level Pressure 30.11 in    
Wind  
Wind Speed 6 mph (WNW)    
Max Wind Speed 18 mph    
Max Gust Speed 24 mph    
Visibility 10 miles    
Events      
T = Trace of Precipitation, MM = Missing Value Source: NWS Daily Summary

Daily Weather History Graph

Daily Weather History Graph

Search for Another Location

Airport or City:

Trip Planner

Search our weather history database for the weather conditions in past years. The results will help you decide how hot, cold, wet, or windy it might be!

Date:

Astronomy

Sep. 21, 2011 Rise Set
Actual Time 7:06 AM CDT 7:18 PM CDT
Civil Twilight 6:39 AM CDT 7:45 PM CDT
Nautical Twilight 6:07 AM CDT 8:17 PM CDT
Astronomical Twilight 5:35 AM CDT 8:49 PM CDT
Moon 12:27 AM CDT (9/21) 3:28 PM CDT (9/21)
Length of Visible Light 13h 06m
Length of Day
12h 12m
Last Quarter, 38% of the Moon is Illuminated
Sep 21
Last Quarter
Sep 27
New
Oct 3
First Quarter
Oct 11
Full
Oct 19
Last Quarter

Hourly Weather History & Observations

Time (CDT) Temp. Dew Point Humidity Pressure Visibility Wind Dir Wind Speed Gust Speed Precip Events Conditions
12:53 AM 55.9 °F 48.9 °F 77% 30.04 in 10.0 mi North 5.8 mph - N/A   Clear
1:53 AM 57.0 °F 48.9 °F 74% 30.06 in 10.0 mi NW 3.5 mph - N/A   Clear
2:53 AM 55.9 °F 51.1 °F 84% 30.06 in 10.0 mi Calm Calm - N/A   Partly Cloudy
3:53 AM 55.0 °F 50.0 °F 83% 30.06 in 10.0 mi West 3.5 mph - N/A   Clear
4:53 AM 53.6 °F 48.2 °F 82% 30.08 in 10.0 mi West 3.5 mph - N/A   Clear
5:53 AM 50.0 °F 46.0 °F 86% 30.08 in 10.0 mi Calm Calm - N/A   Clear
6:53 AM 50.0 °F 46.9 °F 89% 30.08 in 10.0 mi North - - N/A   Clear
7:53 AM 51.1 °F 46.9 °F 86% 30.11 in 10.0 mi North - - N/A   Clear
8:53 AM 55.9 °F 48.0 °F 75% 30.13 in 10.0 mi WSW 5.8 mph - N/A   Clear
9:53 AM 61.0 °F 46.9 °F 60% 30.13 in 10.0 mi West 5.8 mph - N/A   Clear
10:53 AM 66.0 °F 46.0 °F 48% 30.14 in 10.0 mi NW 15.0 mph 24.2 mph N/A   Clear
11:53 AM 66.9 °F 46.0 °F 47% 30.13 in 10.0 mi WNW 16.1 mph 24.2 mph N/A   Clear
12:53 PM 69.1 °F 46.9 °F 45% 30.12 in 10.0 mi WNW 9.2 mph 18.4 mph N/A   Clear
1:53 PM 72.0 °F 48.0 °F 43% 30.11 in 10.0 mi West 10.4 mph - N/A   Clear
3:53 PM 70.0 °F 45.0 °F 41% 30.09 in 10.0 mi NW 12.7 mph - N/A   Clear
4:53 PM 68.0 °F 46.0 °F 45% 30.09 in 10.0 mi NW 11.5 mph - N/A   Scattered Clouds
5:53 PM 69.1 °F 45.0 °F 42% 30.09 in 10.0 mi NW 11.5 mph - N/A   Clear
6:53 PM 64.4 °F 48.2 °F 56% 30.11 in 10.0 mi WNW 4.6 mph - N/A   Clear
7:53 PM 57.0 °F 50.0 °F 77% 30.13 in 10.0 mi WNW 4.6 mph - N/A   Clear
8:53 PM 53.1 °F 50.0 °F 89% 30.14 in 10.0 mi Calm Calm - N/A   Clear
9:53 PM 52.0 °F 50.0 °F 93% 30.14 in 10.0 mi Calm Calm - N/A   Clear
10:53 PM 51.1 °F 48.9 °F 92% 30.15 in 10.0 mi Calm Calm - N/A   Clear
11:53 PM 48.9 °F 46.9 °F 93% 30.16 in 10.0 mi Calm Calm - N/A   Clear